When you browse on this site, cookies collect data to enhance your experience and personalize the content and advertising you see.
Visit our Privacy Policy to learn more. By continuing to use the site, you agree to this use of cookies and data.
  • In Romania
  • List of Countries
  • For 7 days
  • Water Temperature
  • Satellite Maps
  • Weather Map
  • Weather Widgets
  • user-avatar
    Login

    Hourly Weather Kumskoy

    Today, 21 March, Thursday

    Time Temperature Precipitation Wind Pressure Humidity
    00:00 +5°C° 0 mm 2 mps 738 mmHg 84%
    01:00 +5°C° 0 mm 2 mps 738 mmHg 85%
    02:00 +4°C° 0 mm 2 mps 738 mmHg 86%
    03:00 +3°C° 0 mm 3 mps 738 mmHg 85%
    04:00 +4°C° 0 mm 2 mps 738 mmHg 85%
    05:00 +4°C° 0 mm 2 mps 738 mmHg 85%
    06:00 +5°C° 0 mm 1 mps 738 mmHg 85%
    07:00 +6°C° 0 mm 1 mps 738 mmHg 78%
    08:00 +8°C° 0 mm 1 mps 739 mmHg 71%
    09:00 +10°C° 0 mm 1 mps 739 mmHg 64%
    10:00 +11°C° 0 mm 1 mps 738 mmHg 60%
    11:00 +13°C° 0 mm 2 mps 738 mmHg 56%
    12:00 +13°C° 0 mm 3 mps 738 mmHg 52%
    13:00 +14°C° 0 mm 3 mps 738 mmHg 50%
    14:00 +14°C° 0 mm 4 mps 738 mmHg 48%
    15:00 +15°C° 0 mm 4 mps 738 mmHg 46%
    16:00 +14°C° 0 mm 4 mps 738 mmHg 50%
    17:00 +13°C° 0 mm 4 mps 738 mmHg 53%
    18:00 +12°C° 0 mm 4 mps 738 mmHg 57%
    19:00 +11°C° 0 mm 4 mps 738 mmHg 61%
    20:00 +10°C° 0 mm 4 mps 738 mmHg 66%
    21:00 +10°C° 0 mm 4 mps 738 mmHg 70%
    22:00 +8°C° 0 mm 4 mps 738 mmHg 71%
    23:00 +8°C° 0 mm 4 mps 738 mmHg 72%

    Tomorrow, 22 March, Friday

    Time Temperature Precipitation Wind Pressure Humidity
    00:00 +7°C° 0 mm 4 mps 738 mmHg 73%
    01:00 +7°C° 0 mm 4 mps 739 mmHg 74%
    02:00 +6°C° 0 mm 4 mps 739 mmHg 75%
    03:00 +6°C° 0 mm 5 mps 739 mmHg 76%
    04:00 +6°C° 0.1 mm 5 mps 739 mmHg 77%
    05:00 +5°C° 0.1 mm 5 mps 739 mmHg 78%
    06:00 +4°C° 0.1 mm 6 mps 739 mmHg 79%
    07:00 +4°C° 0.1 mm 6 mps 739 mmHg 75%
    08:00 +5°C° 0.1 mm 6 mps 739 mmHg 70%
    09:00 +5°C° 0.1 mm 6 mps 739 mmHg 65%
    10:00 +5°C° 0.3 mm 6 mps 738 mmHg 63%
    11:00 +5°C° 0.3 mm 6 mps 738 mmHg 62%
    12:00 +5°C° 0.3 mm 6 mps 738 mmHg 60%
    13:00 +7°C° 0.3 mm 6 mps 738 mmHg 57%
    14:00 +8°C° 0.3 mm 6 mps 737 mmHg 53%
    15:00 +8°C° 0.3 mm 6 mps 737 mmHg 50%
    16:00 +8°C° 0 mm 5 mps 737 mmHg 52%
    17:00 +8°C° 0 mm 4 mps 737 mmHg 55%
    18:00 +8°C° 0 mm 3 mps 737 mmHg 57%
    19:00 +7°C° 0 mm 3 mps 737 mmHg 61%
    20:00 +7°C° 0 mm 3 mps 737 mmHg 64%
    21:00 +6°C° 0 mm 2 mps 737 mmHg 68%
    22:00 +6°C° 0 mm 2 mps 737 mmHg 71%
    23:00 +5°C° 0 mm 2 mps 736 mmHg 74%

    Day after tomorrow, 23 March, Saturday

    Time Temperature Precipitation Wind Pressure Humidity
    00:00 +5°C° 0 mm 2 mps 736 mmHg 76%
    01:00 +5°C° 0 mm 2 mps 735 mmHg 78%
    02:00 +5°C° 0 mm 2 mps 735 mmHg 80%
    03:00 +4°C° 0 mm 2 mps 734 mmHg 81%
    04:00 +4°C° 0 mm 2 mps 734 mmHg 80%
    05:00 +4°C° 0 mm 2 mps 733 mmHg 79%
    06:00 +4°C° 0 mm 2 mps 732 mmHg 78%
    07:00 +5°C° 0 mm 2 mps 732 mmHg 74%
    08:00 +5°C° 0 mm 3 mps 732 mmHg 70%
    09:00 +7°C° 0 mm 3 mps 732 mmHg 66%
    10:00 +8°C° 0 mm 3 mps 732 mmHg 62%
    11:00 +9°C° 0 mm 3 mps 732 mmHg 58%
    12:00 +10°C° 0 mm 3 mps 732 mmHg 54%
    13:00 +10°C° 0.4 mm 3 mps 731 mmHg 57%
    14:00 +8°C° 0.4 mm 4 mps 731 mmHg 60%
    15:00 +8°C° 0.4 mm 4 mps 731 mmHg 63%
    16:00 +6°C° 2.9 mm 4 mps 731 mmHg 71%
    17:00 +3°C° 2.9 mm 5 mps 731 mmHg 79%
    18:00 +1°C° 2.9 mm 5 mps 732 mmHg 87%
    19:00 +1°C° 1.1 mm 4 mps 732 mmHg 90%
    20:00 +1°C° 1.1 mm 3 mps 733 mmHg 92%
    21:00 +1°C° 1.1 mm 3 mps 734 mmHg 95%
    22:00 +2°C° 0.7 mm 2 mps 734 mmHg 95%
    23:00 +2°C° 0.7 mm 2 mps 734 mmHg 96%

    24 March, Sunday

    Time Temperature Precipitation Wind Pressure Humidity
    00:00 +2°C° 0.7 mm 1 mps 734 mmHg 97%
    01:00 +2°C° 0.4 mm 1 mps 734 mmHg 97%
    02:00 +2°C° 0.4 mm 1 mps 735 mmHg 96%
    03:00 +2°C° 0.4 mm 1 mps 735 mmHg 96%
    04:00 +2°C° 0.2 mm 1 mps 735 mmHg 95%
    05:00 +2°C° 0.2 mm 1 mps 735 mmHg 95%
    06:00 +2°C° 0.2 mm 1 mps 735 mmHg 95%
    07:00 +2°C° 0.1 mm 1 mps 736 mmHg 95%
    08:00 +1°C° 0.1 mm 2 mps 736 mmHg 94%
    09:00 +1°C° 0.1 mm 2 mps 736 mmHg 94%
    10:00 +2°C° 0.1 mm 2 mps 736 mmHg 90%
    11:00 +3°C° 0.1 mm 2 mps 736 mmHg 86%
    12:00 +3°C° 0.1 mm 2 mps 736 mmHg 82%
    13:00 +4°C° 0 mm 2 mps 735 mmHg 76%
    14:00 +4°C° 0 mm 2 mps 735 mmHg 70%
    15:00 +5°C° 0 mm 2 mps 735 mmHg 63%
    16:00 +5°C° 0 mm 2 mps 735 mmHg 66%
    17:00 +4°C° 0 mm 2 mps 735 mmHg 68%
    18:00 +4°C° 0 mm 2 mps 736 mmHg 70%
    19:00 +3°C° 0 mm 2 mps 736 mmHg 71%
    20:00 +3°C° 0 mm 2 mps 736 mmHg 72%
    21:00 +2°C° 0 mm 2 mps 737 mmHg 74%
    22:00 +1°C° 0 mm 3 mps 737 mmHg 74%
    23:00 0°C° 0 mm 3 mps 737 mmHg 74%

    25 March, Monday

    Time Temperature Precipitation Wind Pressure Humidity
    00:00 0°C° 0 mm 3 mps 737 mmHg 74%
    01:00 0°C° 0 mm 3 mps 737 mmHg 74%
    02:00 -1°C° 0 mm 2 mps 737 mmHg 75%
    03:00 -1°C° 0 mm 2 mps 737 mmHg 75%
    04:00 -1°C° 0 mm 2 mps 737 mmHg 74%
    05:00 -1°C° 0 mm 2 mps 737 mmHg 73%
    06:00 -1°C° 0 mm 2 mps 737 mmHg 73%
    07:00 +1°C° 0 mm 2 mps 737 mmHg 68%
    08:00 +3°C° 0 mm 2 mps 737 mmHg 62%
    09:00 +3°C° 0 mm 3 mps 737 mmHg 57%
    10:00 +4°C° 0 mm 3 mps 737 mmHg 54%
    11:00 +5°C° 0 mm 3 mps 736 mmHg 52%
    12:00 +7°C° 0 mm 3 mps 736 mmHg 49%
    13:00 +8°C° 0 mm 3 mps 736 mmHg 48%
    14:00 +8°C° 0 mm 3 mps 736 mmHg 47%
    15:00 +8°C° 0 mm 4 mps 735 mmHg 47%
    16:00 +8°C° 0 mm 3 mps 736 mmHg 52%
    17:00 +7°C° 0 mm 3 mps 736 mmHg 57%
    18:00 +7°C° 0 mm 2 mps 736 mmHg 63%
    19:00 +6°C° 0 mm 2 mps 736 mmHg 66%
    20:00 +6°C° 0 mm 1 mps 736 mmHg 70%
    21:00 +4°C° 0 mm 0 mps 736 mmHg 74%
    22:00 +5°C° 0 mm 1 mps 736 mmHg 75%
    23:00 +5°C° 0 mm 1 mps 736 mmHg 76%

    26 March, Tuesday

    Time Temperature Precipitation Wind Pressure Humidity
    00:00 +4°C° 0 mm 1 mps 736 mmHg 76%
    01:00 +4°C° 0 mm 1 mps 735 mmHg 77%
    02:00 +4°C° 0 mm 1 mps 735 mmHg 77%
    03:00 +3°C° 0 mm 1 mps 735 mmHg 77%
    04:00 +3°C° 0 mm 1 mps 735 mmHg 77%
    05:00 +3°C° 0 mm 1 mps 735 mmHg 77%
    06:00 +3°C° 0 mm 1 mps 735 mmHg 77%
    07:00 +3°C° 0 mm 2 mps 734 mmHg 70%
    08:00 +4°C° 0 mm 3 mps 734 mmHg 64%
    09:00 +5°C° 0 mm 5 mps 734 mmHg 57%
    10:00 +6°C° 0 mm 5 mps 733 mmHg 54%
    11:00 +8°C° 0 mm 5 mps 733 mmHg 52%
    12:00 +9°C° 0 mm 6 mps 732 mmHg 49%
    13:00 +9°C° 0 mm 6 mps 732 mmHg 49%
    14:00 +10°C° 0 mm 6 mps 732 mmHg 48%
    15:00 +12°C° 0 mm 5 mps 731 mmHg 48%
    16:00 +10°C° 0 mm 5 mps 732 mmHg 51%
    17:00 +10°C° 0 mm 4 mps 732 mmHg 55%
    18:00 +8°C° 0 mm 4 mps 732 mmHg 58%
    19:00 +7°C° 0 mm 4 mps 732 mmHg 61%
    20:00 +6°C° 0 mm 4 mps 732 mmHg 64%
    21:00 +5°C° 0 mm 4 mps 733 mmHg 67%
    22:00 +5°C° 0 mm 3 mps 733 mmHg 69%
    23:00 +4°C° 0 mm 3 mps 732 mmHg 71%
    Show more